Torna al catalogo

ALSAT 1

AttivoScienzaSSO
NORAD 27559·PAYLOAD·🇩🇿 Algeria

Lanciato Nov 28, 2002 da Plesetsk Cosmodrome

Loading…

Prossimi Passaggi (prossime 24 ore)

TLE

AggiornatoSource: Space-Track

Epoca: Sep 14, 2026, 00:16 UTC

1 27559U 02054A   26257.01120567  .00000510  00000-0  77620-4 0  9995
2 27559  98.2500  83.7835 0019751   0.1845 359.9368 14.78315946276375

Traccia ALSAT 1 in tempo reale con AllMySat

Download on the App Store